Location: Shenandoah County Park
(38.9356°N, 78.4524°W)
Time: 05:29:27
(UTC-04:00)

Vanguard 1 Rocket - Pass Details

Date: 13 February 2023
Orbit: 652 x 4223 km, 34.3° (Epoch: 26 March)

Event Time Altitude Azimuth Distance (km) Brightness Sun altitude
Rises 10:18:31 0° 242° (WSW) 3,333 10.2 29.7°
Reaches altitude 10° 10:20:33 10° 237° (WSW) 2,595 9.8 29.9°
Maximum altitude 10:26:29 54° 161° (SSE) 1,522 9.9 30.6°
Drops below altitude 10° 10:37:27 10° 88° (E) 4,684 11.5 31.7°
Sets 10:42:29 0° 85° (E) 6,294 12.0 32.3°
